Tracking 34142 objects as of 18-May-2026
HD Live streaming from Space Station
objects crossing your sky now

QIANFAN-117

Track QIANFAN-117 now!
10-day predictions
QIANFAN-117 is classified as:


NORAD ID: 68644
Int'l Code: 2026-075J
Perigee: 959.1 km
Apogee: 981.4 km
Inclination: 89.0 °
Period: 104.3 minutes
Semi major axis: 7341 km
RCS: Unknown
Launch date: April 7, 2026
Source: People's Republic of China (PRC)
Launch site: Wenchang Satellite Launch Center (WSC)
Your satellite tracking list
Your tracking list is empty




NASA's NSSDC Master Catalog

Two Line Element Set (TLE):
1 68644U 26075J   26137.33289856 -.02146717  00000-0 -22166+1 0  9998
2 68644  88.9869 324.2058 0015201  79.7995 280.4886 13.80225079  5612
Source of the keplerian elements: AFSPC